Terminal Aerodrome Forecast
Issued by NWS Cleveland, OH

Home | Current Version | Previous Version | Graphics & Text | Print | Product List | Glossary On
Versions: 1 2 3 4 5 6 7 8 9 10 11 12 13 14 15 16 17 18 19 20 21 22 23 24 25 26 27 28 29 30 31 32 33
000
FTUS41 KCLE 191600 AAC
TAFCLE
TAF AMD
KCLE 191652Z 1917/2018 18016G24KT 2SM -SN SCT015 OVC025
     FM191900 19018G26KT 4SM -SN BKN015 OVC030
     FM200300 25015G25KT 6SM -SHSN OVC025=

USA.gov is the U.S. government's official web portal to all federal, state and local government web resources and services.